Regional Weather Roundup
Issued by NWS

Home | Current Version | Previous Version | Graphics & Text | Print | Product List | Glossary On
Versions: 1 2 3 4 5 6 7 8 9 10 11 12 13 14 15 16 17 18 19 20 21 22 23 24 25 26 27 28 29 30 31 32 33 34 35 36 37 38 39 40 41 42 43 44 45 46 47 48 49 50
692
ASUS43 KDMX 231808
RWRIA

WEATHER ROUNDUP FOR IOWA
NATIONAL WEATHER SERVICE DES MOINES IA
100 PM CDT SAT JUL 23 2016

NOTE: "FAIR" INDICATES FEW OR NO CLOUDS BELOW 12,000 FEET WITH NO
SIGNIFICANT WEATHER AND/OR OBSTRUCTIONS TO VISIBILITY.

* - THESE STATIONS ARE NOT NWS STATIONS...THUS NOT UNDER NWS
QUALITY CONTROL.  THEY ALSO DO NOT REPORT WEATHER SUCH
AS PRECIPITATION OR FOG.

IAZ001>003-012>014-020>022-031>034-043>046-231900-
   NORTHWEST IOWA

CITY           SKY/WX    TMP DP  RH WIND       PRES   REMARKS
CARROLL *      CLOUDY    81  75  83 SE8       29.86S HX  86
CHEROKEE *     CLOUDY    84  77  80 S10       29.82F HX  94
DENISON *      CLOUDY    79  73  83 S10       29.83R HX  82
LE MARS *      PTSUNNY   86  77  74 SE13      29.79F HX  97
SHELDON *      CLOUDY    84  79  84 S12G20    29.80R HX  96
SIOUX CITY     SUNNY     89  76  65 SE9       29.79F HX 100
6HR MIN TEMP:  79; 6HR MAX TEMP:  89; 6HR PCP:  0.02;

SPENCER        CLOUDY    83  75  77 SE17      29.81F HX  90
6HR MIN TEMP:  76; 6HR MAX TEMP:  84; 6HR PCP:  0.26;

STORM LAKE *   MOSUNNY   79  75  89 SE12      29.85S HX  82
$$

IAZ055>058-069>071-079>083-090>094-231900-
   SOUTHWEST IOWA

CITY           SKY/WX    TMP DP  RH WIND       PRES   REMARKS
ATLANTIC *     CLOUDY    84  75  74 S7        29.86S HX  92
CLARINDA *       N/A     86  79  79 MISG      29.88R HX  99
COUNCIL BLFS * CLOUDY    84  73  70 S8        29.85R HX  91
CRESTON *      CLOUDY    82  77  83 SE7       29.89F HX  91
HARLAN  *      CLOUDY    81  75  83 S8        29.89S HX  86
LAMONI         MOSUNNY   90  78  68 S12       29.89F HX 104
6HR MIN TEMP:  77; 6HR MAX TEMP:  90;

RED OAK *      CLOUDY    84  77  79 SE10      29.85S HX  94
SHENANDOAH *   CLOUDY    84  79  84 S8        29.85R HX  96
$$

IAZ047>049-059>061-072>074-084-231900-
   CENTRAL IOWA

CITY           SKY/WX    TMP DP  RH WIND       PRES   REMARKS
AMES           CLOUDY    87  80  79 E3        29.89S HX 103
6HR MIN TEMP:  77; 6HR MAX TEMP:  87;

ANKENY *         N/A    N/A N/A N/A MISG        N/A
BOONE *        CLOUDY    84  77  79 SE8       29.88F HX  94
CHARITON *       N/A    N/A N/A N/A MISG        N/A
DES MOINES     CLOUDY    88  77  69 SW8       29.87R HX 100
6HR MIN TEMP:  80; 6HR MAX TEMP:  91;

GRINNELL*      CLOUDY    89  77  66 SE13      29.90F HX 102
KNOXVILLE *    CLOUDY    86  77  74 SE6       29.87F HX  97
MARSHALLTOWN   MOSUNNY   87  79  76 SE12      29.88S HX 101
6HR MIN TEMP:  77; 6HR MAX TEMP:  88;

NEWTON *       MOSUNNY   86  81  84 S9        29.88S HX 102
PELLA *        CLOUDY    89  76  67 S8        29.89S HX 100
PERRY *        LGT RAIN  83  79  89 SE5       29.87F HX  94
$$

IAZ004>006-015-016-023>025-035-036-231900-
   NORTH CENTRAL IOWA

CITY           SKY/WX    TMP DP  RH WIND       PRES   REMARKS
ALGONA *       CLOUDY    79  77  94 SE13      29.84F HX  83
ESTHERVILLE    CLOUDY    75  74  96 SE16      29.81F
6HR MIN TEMP:  73; 6HR MAX TEMP:  76; 6HR PCP:  0.18;

FORT DODGE *   CLOUDY    81  77  89 E14       29.86F HX  88
MASON CITY     LGT RAIN  75  74  96 SE7       29.95F FOG
6HR MIN TEMP:  75; 6HR MAX TEMP:  78; 6HR PCP:  0.33;

FOREST CITY *  LGT RAIN  75  75 100 SE12G17   29.89F
IOWA FALLS *   CLOUDY    85  76  73 CALM      29.92S HX  95
$$

IAZ007>011-017>019-026>030-037>042-050>054-066-231900-
   NORTHEAST IOWA

CITY           SKY/WX    TMP DP  RH WIND       PRES   REMARKS
CEDAR RAPIDS   CLOUDY    87  81  82 SE10      29.92S HX 104
6HR MIN TEMP:  76; 6HR MAX TEMP:  87;

CHARLES CITY * CLOUDY    75  75 100 E7        29.95R
CLINTON *      CLOUDY    86  79  79 SE9       29.97F HX  99
DECORAH *      CLOUDY    72  72 100 E14G21    29.94F
DUBUQUE        CLOUDY    79  77  94 N14G23    30.01R HX  83
6HR MIN TEMP:  77; 6HR MAX TEMP:  81;

MONTICELLO *   CLOUDY    82  79  89 E10       29.95F HX  93
OELWEIN *      CLOUDY    75  73  94 E16G24    29.94F
WATERLOO       CLOUDY    84  78  82 SE17      29.88F HX  95
6HR MIN TEMP:  78; 6HR MAX TEMP:  84; 6HR PCP:  0.01;

$$

IAZ064-065-067-068-078-231900-
   EAST CENTRAL IOWA

CITY           SKY/WX    TMP DP  RH WIND       PRES   REMARKS
DAVENPORT      CLOUDY    87  79  76 SE8       29.97S HX 101
6HR MIN TEMP:  77; 6HR MAX TEMP:  87;

IOWA CITY      PTSUNNY   89  81  77 SE13      29.94F HX 108
6HR MIN TEMP:  77; 6HR MAX TEMP:  89;

MT. PLEASANT * MOSUNNY   93  82  69 SE8       29.93F HX 114
MUSCATINE *    MOSUNNY   91  81  70 S9        29.94S HX 110
QUAD CITIES    CLOUDY    89  79  72 SE8       29.95F HX 104
6HR MIN TEMP:  77; 6HR MAX TEMP:  89;

$$

IAZ062-063-075>077-085>089-095>099-231900-
   SOUTHEAST IOWA

CITY           SKY/WX    TMP DP  RH WIND       PRES   REMARKS
BURLINGTON     MOSUNNY   89  81  77 S9        29.94F HX 108
6HR MIN TEMP:  76; 6HR MAX TEMP:  89;

FAIRFIELD *    SUNNY     91  77  62 S10       29.92F HX 105
KEOKUK *       SUNNY     90  79  70 S9        29.94F HX 105
CENTERVILLE *    N/A     93  75  55 S12G18    29.93S HX 104
OTTUMWA        MOSUNNY   91  78  65 S9G17     29.89F HX 106
6HR MIN TEMP:  78; 6HR MAX TEMP:  91;

WASHINGTON *   SUNNY     90  82  79 S8G14     29.94S HX 111
$$

ABBREVIATIONS USED IN REMARKS
   TC - TEMPERATURES IN CELSIUS
  WCI - WIND CHILL INDEX
   HX - HEAT INDEX
  VSB - VISIBILITY
$$





USA.gov is the U.S. government's official web portal to all federal, state and local government web resources and services.